OKEAN-0
1 25860U 99039A 08030.51976186 .00000018 00000-0 99559-5 0 02786
2 25860 097.7416 027.2691 0001572 047.9941 312.1398 14.73499234458979
NOAA-16
1 26536U 00055A 08031.42962261 .00000212 00000-0 13993-3 0 7863
2 26536 099.1464 017.6657 0009823 251.3192 108.6907 14.12468651379327
NOAA-17
1 27453U 02032A 08030.83825805 .00000017 00000-0 26042-4 0 07846
2 27453 098.5526 099.3710 0012436 148.3088 211.8825 14.23945118291114
NOAA-18
1 28654U 05018A 08030.86185160 -.00000145 00000-0 -56011-4 0 02942
2 28654 098.8543 333.5949 0014421 348.6134 011.4713 14.11132156138960
HUBBLE
1 20580U 90037B 08030.64986272 .00000305 00000-0 10810-4 0 00688
2 20580 028.4670 146.7591 0003217 355.4675 004.5883 15.00331414774159
UARS
1 21701U 91063B 08030.54075289 .00003855 00000-0 66085-4 0 02961
2 21701 056.9753 045.7782 0080955 272.0861 087.0927 15.50401113900984
PO-34
1 25520U 98064B 08030.33277061 .00000340 00000-0 69996-5 0 09240
2 25520 028.4608 028.3490 0005776 209.2706 150.7564 15.17123253512052
ISS
1 25544U 98067A 08032.07775766 .00025213 00000-0 15027-3 0 8280
2 25544 051.6429 003.3475 0005874 004.6241 044.5090 15.77753168526894
OO-38
1 26063U 00004C 08031.80490561 -.00000040 00000-0 66958-5 0 1251
2 26063 100.2110 081.5081 0036627 236.2039 123.5648 14.35826239419855
UWE-1
1 28892U 05043C 08030.26600794 .00000001 00000-0 98754-5 0 09636
2 28892 098.1107 287.1064 0018268 121.4888 238.8083 14.59587054120331
CO-58
1 28895U 05043F 08029.41523674 .00000069 00000-0 24093-4 0 09363
2 28895 098.1153 286.5757 0018948 124.5116 235.7860 14.59629300120093
NCUBE2
1 28897U 05043H 08031.65788334 .00000108 00000-0 32281-4 0 4660
2 28897 098.1132 288.7095 0018058 118.5209 241.7816 14.59798091112700
FCAL
1 29667U 06055J 08031.89902088 .00032361 11836-4 66648-4 0 7183
2 29667 051.6328 326.0199 0009476 154.3357 205.8100 16.00293170 64466
FALCON
1 30776U 07006E 08031.86440029 .00000308 00000-0 25584-4 0 2386
2 30776 035.4342 266.2538 0001904 291.0767 068.9749 15.02866423 49478
MAST
1 31126U 07012K 08030.24469176 .00000057 00000-0 23561-4 0 02449
2 31126 098.0565 100.1248 0095655 042.8864 317.9760 14.53396112041830
CAPE1
1 31130U 07012P 08030.95138172 .00000022 00000-0 15887-4 0 02300
2 31130 098.0598 100.1330 0103760 042.6733 318.2467 14.51926239041669
